Back to Previous

Regional Weather Roundup

160 
ASUS44 KLZK 020405
RWRLZK

WEATHER ROUNDUP FOR ARKANSAS
NATIONAL WEATHER SERVICE LITTLE ROCK AR
1100 PM CDT SAT AUG 01 2015

NOTE: "FAIR" INDICATES FEW OR NO CLOUDS BELOW 12,000 FEET WITH NO
SIGNIFICANT WEATHER AND/OR OBSTRUCTIONS TO VISIBILITY.

ARZ001-003-010-029-020500-
NORTHWEST ARKANSAS
  
CITY           SKY/WX    TMP DP  RH WIND       PRES   REMARKS
FAYETTEVILLE   CLEAR     71  70  96 S5        30.03R                  
FORT SMITH     PTCLDY    81  69  67 CALM      29.97R                  
HARRISON       CLEAR     75  67  76 S3        30.03S                  
BENTONVILLE    CLEAR     73  66  78 CALM      30.04R                  
ROGERS         CLEAR     74  71  91 CALM      30.04R                  
SILOAM SPGS    CLEAR     73  63  68 CALM      30.01S                  
HIGHFILL       CLEAR     72  68  87 W6        30.02R                  
$$

ARZ004-005-016-020500-
NORTH CENTRAL ARKANSAS
  
CITY           SKY/WX    TMP DP  RH WIND       PRES   REMARKS
BATESVILLE     CLEAR     75  72  88 CALM      29.99R                  
FLIPPIN        CLEAR     75  66  73 CALM      29.98S                  
MTN HOME       CLEAR     75  66  73 CALM      30.00R                  
$$

ARZ040-041-020500-
WEST CENTRAL ARKANSAS
  
CITY           SKY/WX    TMP DP  RH WIND       PRES   REMARKS
MENA           FAIR      73  64  73 CALM      30.02R                  
MOUNT IDA      PTCLDY    73  67  81 CALM      29.98R                  
$$

ARZ009-017-025-026-028-020500-
NORTHEAST ARKANSAS
  
CITY           SKY/WX    TMP DP  RH WIND       PRES   REMARKS
JONESBORO      CLEAR     73  70  90 CALM      29.97R                  
NEWPORT        CLEAR     81  72  74 S3        29.98S HX  85           
WALNUT RIDGE   PTCLDY    81  68  65 S3        29.97S                  
BLYTHEVILLE    CLEAR     78  72  81 CALM      29.97S                  
$$

ARZ022-023-033-042-044-020500-
CENTRAL ARKANSAS
  
CITY           SKY/WX    TMP DP  RH WIND       PRES   REMARKS
LITTLE ROCK    MOCLDY    79  69  71 CALM      29.97R                  
N LITTLE ROCK  MOCLDY    80  66  62 SW3       29.97R                  
JACKSONVILLE   CLEAR     74  67  79 CALM      29.97S                  
SEARCY         PTCLDY    73  69  87 CALM      29.99R                  
HOT SPRINGS    CLEAR     78  62  57 E3        29.99R                  
RUSSELLVILLE   CLEAR     74  68  81 CALM      29.97R                  
$$

ARZ036-020500-
EAST ARKANSAS
  
CITY           SKY/WX    TMP DP  RH WIND       PRES   REMARKS
WEST MEMPHIS   CLEAR     73  69  87 CALM      29.96S                  
$$

ARZ050-053-066-070-073-020500-
SOUTHWEST ARKANSAS
  
CITY           SKY/WX    TMP DP  RH WIND       PRES   REMARKS
ARKADELPHIA    FAIR      74  71  90 CALM      29.97S                  
CAMDEN         CLEAR     70  64  83 CALM      29.96S                  
TEXARKANA      CLEAR     76  63  64 CALM      29.97S                  
EL DORADO      CLEAR     71  65  81 CALM      29.97S                  
DE QUEEN       CLEAR     71  69  93 CALM      29.96R                  
$$

ARZ056-057-069-020500-
SOUTHEAST ARKANSAS
  
CITY           SKY/WX    TMP DP  RH WIND       PRES   REMARKS
PINE BLUFF     CLEAR     75  67  76 CALM      29.96S                  
STUTTGART      CLEAR     79  66  65 MISG      29.97S                  
MONTICELLO     CLEAR     73  68  84 CALM      29.96S                  

$$




USA.gov is the U.S. government's official web portal to all federal, state and local government web resources and services.